Flag for Western Sahara Weather past 2 weeks in Smara, Western Sahara

Now
73 °F

Sunny.


Feels Like: 76 °F
Forecast: 65 / 92 °F
Wind: 10 mph from Northeast

Location: Laayoune/Hassan Isl

Current Time: Oct 25, 2014 at 11:20:28 AM

Latest Report: Oct 25, 2014 at 11:00 AM


Visibility: 10 mi

Pressure: 30.01 "Hg

Humidity: 69%

Dew point: 63 °F

Location of SmaraLocation

Historic Weather in Smara — Graph

°F

Smara temperature yesterday

Maximum temperature yesterday: 88 °F (at 3:00 PM)
Minimum temperature yesterday: 64 °F (at 8:00 AM)
Average temperature yesterday: 73 °F

Past Weeks' High & Low Weather Summary

 TemperatureHumidityPressure
High99 °F (Oct 22, 2:00 PM)100% (Oct 11, 3:45 AM)30.12 "Hg (Oct 11, 3:45 AM)
Low59 °F (Oct 14, 8:00 AM)10% (Oct 22, 2:00 PM)29.83 "Hg (Oct 19, 2:00 PM)
Average73 °F73%30.01 "Hg
* Reported Oct 10 10:00 AM — Oct 25 10:00 AM, Smara, Weather by CustomWeather, © 2014

Note: Actual official high and low records may vary slightly from our data, if they occured in-between our weather recording intervals... More about our weather records

Advertising

Smara weather history for previous 24 hours

 ConditionsComfort  
Time TempWeatherWind HumidityBarometerVisibility
10:00 AM
Oct 25
68 °FScattered clouds.12 mph83%30.01 "Hg5 mi
9:42 AM68 °FPassing clouds.10 mph83%30.01 "Hg5 mi
9:00 AM66 °FPartly sunny.13 mph88%30.01 "Hg4 mi
8:15 AMN/A7 mphN/AN/A4 mi
8:00 AM66 °FPassing clouds.9 mph94%29.98 "Hg4 mi
7:00 AMN/APassing clouds.9 mphN/AN/A4 mi
6:16 AM66 °FPassing clouds.9 mph94%29.98 "Hg6 mi
6:00 AM66 °FMild.9 mph94%29.98 "HgN/A
5:00 AM68 °FLow clouds.10 mph88%29.98 "HgN/A
4:00 AM68 °FLow clouds.10 mph88%29.98 "HgN/A
3:00 AM68 °FLow clouds.16 mph88%29.98 "Hg6 mi
2:37 AM68 °FPassing clouds.14 mph94%29.98 "Hg6 mi
2:14 AM68 °FPassing clouds.12 mph94%29.98 "Hg6 mi
2:00 AM68 °FPassing clouds.13 mph94%29.98 "Hg5 mi
1:47 AM68 °FPassing clouds.12 mph94%29.98 "Hg6 mi
1:00 AM68 °FPassing clouds.10 mph94%30.01 "HgN/A
12:28 AM68 °FPassing clouds.15 mph94%30.01 "Hg6 mi
12:00 AM70 °FMild.14 mph88%30.01 "HgN/A
11:00 PM
Oct 24
70 °FMild.9 mph83%30.01 "HgN/A
10:00 PM73 °FMild.N/A69%30.01 "HgN/A
9:00 PM75 °FMild.8 mph69%29.98 "HgN/A
8:00 PM75 °FMild.7 mph69%29.98 "HgN/A
7:00 PM82 °FWarm.13 mph48%29.95 "HgN/A
6:00 PM84 °FWarm.14 mph48%29.95 "HgN/A
5:00 PM82 °FSunny.15 mph58%29.92 "Hg10 mi
4:00 PM84 °FWarm.13 mph55%29.95 "HgN/A
3:23 PM82 °FWarm.13 mph58%29.95 "HgN/A
3:00 PM88 °FSunny.12 mph35%29.95 "Hg10 mi
2:00 PM84 °FSunny.7 mph45%29.98 "Hg10 mi
1:00 PM82 °FClear.7 mph51%29.98 "Hg5 mi
12:00 PM75 °FMild.6 mph69%30.04 "HgN/A
11:30 AM73 °FPassing clouds.5 mph74%30.04 "Hg4 mi
11:00 AM73 °FPartly sunny.7 mph74%30.04 "Hg5 mi
Weather by CustomWeather, © 2014

See weather overviewHow to use our weather pages